Regional Weather Roundup
Issued by NWS

Home | Current Version | Previous Version | Text Only | Print | Product List | Glossary Off
Versions: 1 2 3 4 5 6 7 8 9 10 11 12 13 14 15 16 17 18 19 20 21 22 23 24 25 26 27 28 29 30 31 32 33 34 35 36 37 38 39 40 41 42 43 44 45 46 47 48 49 50

000
ASUS43 KDTX 260601
RWRMI
MICHIGAN HOURLY REGIONAL WEATHER ROUNDUP
NATIONAL WEATHER SERVICE DETROIT/PONTIAC MI
200 AM EDT FRI MAY 26 2017

NOTE: "FAIR" INDICATES FEW OR NO CLOUDS BELOW 12,000 FEET WITH NO
SIGNIFICANT WEATHER AND/OR OBSTRUCTION TO VISIBILITY.

MIZ047>049-052>055-059>063-066>070-074>076-081>083-260700-
SOUTHEAST LOWER MICHIGAN

CITY           SKY/WX    TMP DP  RH WIND       PRES   REMARKS
ADRIAN         PTCLDY    57  55  93 NW6       29.69R
6HR MIN TEMP:  57; 6HR MAX TEMP:  61;

ALMA           CLOUDY    55  52  89 NW8       29.71R
ANN ARBOR      CLOUDY    57  55  93 NW9       29.67R
BAD AXE        FOG       50  50 100 NW8       29.67R VSB 3/4
6HR MIN TEMP:  49; 6HR MAX TEMP:  53;

CARO           CLOUDY    54  53  96 N7        29.67R FOG
DETROIT CITY   CLOUDY    57  54  89 NW8       29.65R
6HR MIN TEMP:  56; 6HR MAX TEMP:  58; 6HR PCP:  0.01;

DETROIT        CLOUDY    58  54  86 NW13      29.66R
6HR MIN TEMP:  58; 6HR MAX TEMP:  61; 6HR PCP: TRACE;

FLINT          CLOUDY    53  52  96 N9        29.67R
6HR MIN TEMP:  53; 6HR MAX TEMP:  55; 6HR PCP: TRACE;

GROSSE ILE     CLOUDY    58  55  91 NW7       29.64R
6HR MIN TEMP:  58; 6HR MAX TEMP:  60;

HILLSDALE      CLOUDY    55  54  94 W6        29.70R
HOWELL         CLOUDY    55  52  89 NW6       29.68R
6HR MIN TEMP:  55; 6HR MAX TEMP:  60; 6HR PCP:  0.01;


CITY           SKY/WX    TMP DP  RH WIND       PRES   REMARKS
JACKSON        CLOUDY    57  54  89 NW6       29.69R
6HR MIN TEMP:  57; 6HR MAX TEMP:  60;

LAMBERTVILLE   CLOUDY    59  55  87 W5        29.67R
6HR MIN TEMP:  59; 6HR MAX TEMP:  62;

LANSING        CLOUDY    57  52  83 NW5       29.70R
6HR MIN TEMP:  57; 6HR MAX TEMP:  60; 6HR PCP: TRACE;

LAPEER         DRIZZLE   53  52  97 NW6       29.67R
6HR MIN TEMP:  53; 6HR MAX TEMP:  56; 6HR PCP:  0.01;

MASON          CLOUDY    56  54  94 NW6       29.70R
MONROE         CLOUDY    59  56  91 NW5       29.65S
6HR MIN TEMP:  59; 6HR MAX TEMP:  61;

MT. CLEMENS    DRIZZLE   55  55 100 NW7       29.63R
6HR MIN TEMP:  56; 6HR MAX TEMP:  58; 6HR PCP:  0.03;

PONTIAC        CLOUDY    54  52  93 NW12      29.65R
6HR MIN TEMP:  54; 6HR MAX TEMP:  57; 6HR PCP: TRACE;

PORT HOPE        N/A     49  48  97 NW6       29.64R
6HR MIN TEMP:  48; 6HR MAX TEMP:  50; 6HR PCP:  0.03;

PORT HURON     CLOUDY    54  52  94 NW5       29.64R
TRI CITIES     CLOUDY    54  53  97 N8        29.69S
6HR MIN TEMP:  54; 6HR MAX TEMP:  57; 6HR PCP: TRACE;

MIDLAND        CLOUDY    55  52  90 NW3       29.69S
6HR MIN TEMP:  55; 6HR MAX TEMP:  58;

TROY           CLOUDY    56  53  87 NW8       29.67R
SAGINAW HB     CLOUDY    54  50  87 NW8       29.68S
$$
MIZ043>046-050>051-056>058-064>065-071>073-077>080-260700-
SOUTHWEST LOWER MICHIGAN

CITY           SKY/WX    TMP DP  RH WIND       PRES   REMARKS
BATTLE CREEK   MOCLDY    55  53  93 W8        29.72R
6HR MIN TEMP:  55; 6HR MAX TEMP:  62; 6HR PCP: TRACE;

BENTON HARBOR  MOCLDY    50  48  93 W6        29.76S
6HR MIN TEMP:  48; 6HR MAX TEMP:  53;

BIG RAPIDS     CLEAR     53  50  89 CALM      29.72S
6HR MIN TEMP:  53; 6HR MAX TEMP:  60;

COLDWATER      CLEAR     53  53 100 W8        29.72R
6HR MIN TEMP:  53; 6HR MAX TEMP:  61;

FREMONT        FAIR      51  50  98 N3        29.73R
6HR MIN TEMP:  50; 6HR MAX TEMP:  63;

HOLLAND        CLEAR     51  50  96 W7        29.74R
6HR MIN TEMP:  50; 6HR MAX TEMP:  62;

GRAND RAPIDS   CLEAR     56  53  90 NW5       29.72R
6HR MIN TEMP:  56; 6HR MAX TEMP:  65;

IONIA          FAIR      56  51  83 NW5       29.70S
6HR MIN TEMP:  56; 6HR MAX TEMP:  62;

KALAMAZOO      PTCLDY    51  48  89 W5        29.73R
6HR MIN TEMP:  51; 6HR MAX TEMP:  64;

LUDINGTON      CLEAR     48  48 100 N3        29.74S
6HR MIN TEMP:  48; 6HR MAX TEMP:  60;

MARSHALL       CLOUDY    58  57  99 W5        29.71R
6HR MIN TEMP:  58; 6HR MAX TEMP:  60;

MOUNT PLEASANT CLOUDY    55  51  85 NW5       29.71R
6HR MIN TEMP:  55; 6HR MAX TEMP:  59;

MUSKEGON       CLEAR     52  50  93 NW5       29.74R
6HR MIN TEMP:  52; 6HR MAX TEMP:  67;

SOUTH HAVEN    CLEAR     50  49  97 W5        29.75S
$$
MIZ016>042-260700-
NORTHERN LOWER MICHIGAN

CITY           SKY/WX    TMP DP  RH WIND       PRES   REMARKS
ALPENA         CLOUDY    53  53 100 N8        29.70S
6HR MIN TEMP:  53; 6HR MAX TEMP:  55; 6HR PCP:  0.11;

BEAVER ISLAND  CLOUDY    53  52  97 N3        29.77S
6HR MIN TEMP:  53; 6HR MAX TEMP:  56;

BELLAIRE       CLOUDY    55  52  89 N5        29.74S
6HR MIN TEMP:  55; 6HR MAX TEMP:  58;

CADILLAC       MOCLDY    51  50  97 CALM      29.73R
CHARLEVOIX     FOG       51  51 100 N5        29.77F VSB 3/4
FRANKFORT      CLEAR     51  47  88 CALM      29.74S
GAYLORD        CLOUDY    54  50  86 N6        29.73S
6HR MIN TEMP:  54; 6HR MAX TEMP:  55; 6HR PCP: TRACE;

GRAYLING       CLOUDY    54  52  92 N7        29.73S
6HR MIN TEMP:  53; 6HR MAX TEMP:  55;

HARBOR SPRINGS CLOUDY    47  47 100 S3        29.74F
HOUGHTON LAKE  CLOUDY    54  51  90 N9        29.71F
6HR MIN TEMP:  53; 6HR MAX TEMP:  56;

MANISTEE       CLEAR     47  47 100 W5        29.74S
OSCODA         CLOUDY    54  53  97 NW9       29.67R
6HR MIN TEMP:  51; 6HR MAX TEMP:  54;

PELLSTON       CLOUDY    55  52  89 N5        29.75S
6HR MIN TEMP:  54; 6HR MAX TEMP:  55; 6HR PCP:  0.01;

ROGERS CITY    RAIN      49  48  99 N6        29.73R VSB 3/4
TRAVERSE CITY  MOCLDY    50  48  93 CALM      29.73S
6HR MIN TEMP:  50; 6HR MAX TEMP:  58;

$$
MIZ007>008-015-260700-
EASTERN UPPER MICHIGAN

CITY           SKY/WX    TMP DP  RH WIND       PRES   REMARKS
KINROSS        CLOUDY    53  52  96 NW8       29.76S
6HR MIN TEMP:  53; 6HR MAX TEMP:  57; 6HR PCP: TRACE;

MACKINAC ISLAN CLOUDY    53  53 100 N6        29.75S
6HR MIN TEMP:  53; 6HR MAX TEMP:  54; 6HR PCP:  0.02;

NEWBERRY       CLOUDY    52  51  97 N3        29.77F
6HR MIN TEMP:  52; 6HR MAX TEMP:  58; 6HR PCP:  0.01;

S. S. MARIE    CLOUDY    56  53  90 NW3       29.75S
6HR MIN TEMP:  56; 6HR MAX TEMP:  60; 6HR PCP: TRACE;

MUNISING         N/A     43  42  97 S5        29.78F
6HR MIN TEMP:  43; 6HR MAX TEMP:  47;

$$
MIZ004>006-011>014-085-260700-
CENTRAL UPPER MICHIGAN

CITY           SKY/WX    TMP DP  RH WIND       PRES   REMARKS
MANISTIQUE     CLOUDY    54  51  89 CALM      29.77F
6HR MIN TEMP:  54; 6HR MAX TEMP:  60;

ESCANABA       CLEAR     51  48  89 NE6       29.78F
6HR MIN TEMP:  48; 6HR MAX TEMP:  58;

MENOMINEE      FOG       48  48 100 CALM      29.80R VSB 3/4
6HR MIN TEMP:  48; 6HR MAX TEMP:  64;

SAWYER-GWINN   CLEAR     45  43  92 NE3       29.80S
6HR MIN TEMP:  44; 6HR MAX TEMP:  58;

$$
MIZ001>003-009>011-084-260700-
WESTERN UPPER MICHIGAN

CITY           SKY/WX    TMP DP  RH WIND       PRES   REMARKS
IRON MOUNTAIN  FOG       47  44  90 CALM      29.79R VSB 1/2
6HR MIN TEMP:  46; 6HR MAX TEMP:  70;

HOUGHTON       CLEAR     49  44  83 E6        29.77F
6HR MIN TEMP:  48; 6HR MAX TEMP:  63;

COPPER HARBOR    N/A     50  46  86 N3        29.76F
6HR MIN TEMP:  47; 6HR MAX TEMP:  53;

IRONWOOD       CLOUDY    60  46  59 SE10G20   29.74S
6HR MIN TEMP:  56; 6HR MAX TEMP:  69;

$$

ABBREVIATIONS USED IN REMARKS
   TC - TEMPERATURE IN CELSIUS
  WCI - WIND CHILL INDEX
   HX - HEAT INDEX
  VSB - VISIBILITY





USA.gov is the U.S. government's official web portal to all federal, state and local government web resources and services.